#timestamp,LO_Frequency,Hit,StdDev 
1521061215.7,286047002.7,N
1521061235.5,286047002.4,N
1521061255.4,286047002.7,N
1521061275.2,286047000.8,N
1521061295.1,286047002.3,N
1521061296.0,286047002.3,N
1521061315.8,286046999.8,N
1521061335.6,286047000.9,N
1521061355.5,286047001.9,N
1521061375.3,286047002.7,N
1521061395.1,286047000.9,N
1521061415.9,286047001.1,N
1521061435.7,286046998.1,N
1521061455.6,286046998.5,N
1521061475.4,286046998.2,N
1521061495.2,286046998.6,N
1521061515.1,286046998.6,N
1521061516.0,286046998.6,N
1521061535.8,286046998.8,N
1521061555.7,286046999.2,N
1521061575.5,286046999.5,N
1521061595.3,286047000.8,N
1521061615.2,286046998.7,N
1521061635.0,286047001.0,N
1521061635.9,286047001.0,N
1521061655.8,286047000.4,N
1521061675.6,286047000.2,N
1521061695.4,286047002.8,N
1521061715.3,286047000.4,N
1521061735.1,286047002.8,N
1521061755.8,286047000.2,N
1521061775.7,286047000.0,N
1521061795.5,286047002.6,N
1521061815.4,286047002.4,N
1521061835.2,286047000.5,N
1521061855.0,286047000.7,N
1521061855.9,286047000.7,N
1521061875.8,286047000.9,N
1521061895.6,286046998.1,N
1521061915.4,286047000.7,N
1521061935.3,286046998.3,N
1521061955.1,286046999.5,N
1521061975.9,286046998.4,N
1521061995.7,286047000.4,N
1521062015.5,286047002.4,N
1521062035.4,286047002.7,N
1521062055.2,286047000.5,N
1521062075.0,286047001.1,N
1521062075.9,286047001.1,N
1521062095.8,286047002.7,N
1521062115.6,286046998.3,N
1521062135.5,286047001.2,N
1521062155.3,286046999.8,N
1521062175.1,286046999.7,N
1521062195.9,286046998.6,N
1521062215.7,286047000.8,N
1521062235.5,286047001.2,N
1521062255.4,286047001.1,N
1521062275.2,286047001.0,N
1521062295.1,286047000.1,N
1521062296.0,286047000.1,N
1521062315.8,286047000.8,N
1521062335.6,286047000.9,N
1521062355.5,286047000.2,N
1521062375.3,286047001.0,N
1521062395.1,286047000.6,N
1521062415.9,286047000.7,N
1521062435.7,286047000.8,N
1521062455.6,286047001.2,N
1521062475.4,286047000.7,N
1521062495.2,286047000.4,N
1521062515.1,286047000.3,N
1521062516.0,286047000.3,N
1521062535.8,286047000.7,N
1521062555.7,286046999.8,N
1521062575.5,286047002.3,N
1521062595.3,286047002.3,N
1521062615.2,286047001.5,N
1521062635.0,286046999.9,N
1521062635.9,286046999.9,N
1521062655.7,286046999.8,N
1521062675.6,286047002.7,Y
1521062695.4,286047001.8,P
1521062715.3,286047002.5,P
1521062735.1,286047001.3,N
1521062755.8,286047000.3,N
1521062775.7,286047000.1,N
1521062795.5,286046999.7,N
1521062815.3,286047002.1,N
1521062835.2,286047001.5,N
1521062855.0,286047004.3,Y
1521062855.9,286047004.3,P
1521062875.8,286047000.2,N
1521062895.6,286046999.8,N
1521062915.5,286047000.9,N
1521062935.3,286047000.9,N
1521062955.1,286046999.8,N
1521062975.9,286047002.8,N
1521062995.7,286047000.6,N
1521063015.5,286047002.3,N
1521063035.4,286047001.6,N
1521063055.2,286047002.8,N
1521063075.0,286046998.3,N
1521063076.0,286046998.3,N
1521063095.8,286047001.1,N
1521063115.6,286046998.2,N
1521063135.5,286046998.5,N
1521063155.3,286047000.2,N
1521063175.1,286046998.3,N
1521063195.9,286046999.9,N
1521063215.7,286047002.6,N
1521063235.6,286047002.4,N
1521063255.4,286047000.2,N
1521063275.2,286046998.8,N
1521063295.1,286046999.4,N
1521063296.0,286046999.4,N
1521063315.8,286046996.5,N
1521063335.6,286046997.1,N
1521063355.5,286046999.5,N
1521063375.3,286046999.2,N
1521063395.2,286046997.1,N
1521063415.9,286046996.9,N
1521063435.7,286046997.5,N
1521063455.6,286046997.5,N
1521063475.4,286046998.4,N
1521063495.2,286046999.6,N
1521063515.1,286046996.7,N
1521063516.0,286046996.7,N
1521063535.8,286046997.1,N
1521063555.7,286046996.6,N
1521063575.5,286046997.4,N
1521063595.3,286046999.4,N
1521063615.2,286047001.0,N
1521063635.0,286046999.4,N
1521063635.9,286046999.4,N
1521063655.8,286046998.8,N
1521063675.6,286046996.9,N
1521063695.4,286046996.9,N
1521063715.3,286046997.1,N
1521063735.1,286046997.9,N
1521063755.8,286046997.5,N
1521063775.7,286046997.5,N
1521063795.5,286046997.5,N
1521063815.4,286046997.2,N
1521063835.2,286046997.1,N
1521063855.0,286046997.7,N
1521063855.9,286046997.7,N
1521063875.8,286046999.6,N
1521063895.6,286046996.7,N
1521063915.4,286046996.7,N
1521063935.3,286046996.8,N
1521063955.1,286046999.5,N
1521063975.9,286046998.3,N
1521063995.7,286046999.4,N
1521064015.5,286046996.7,N
1521064035.4,286046999.1,N
1521064055.2,286046998.5,N
1521064075.0,286046999.1,N
1521064076.0,286046999.1,N
1521064095.8,286046998.7,N
1521064115.6,286046998.3,N
1521064135.5,286046998.3,N
1521064155.3,286046998.4,N
1521064175.1,286046998.9,N
1521064195.9,286046999.4,N
1521064215.7,286047001.1,N
1521064235.6,286047001.0,N
1521064255.4,286047001.2,N
1521064275.2,286047000.8,N
1521064295.1,286047001.2,N
1521064296.0,286047001.2,N
1521064315.8,286046998.7,N
1521064335.6,286046998.8,N
1521064355.5,286046998.9,N
1521064375.3,286046996.8,N
1521064395.2,286046997.5,N
1521064415.9,286046996.7,N
1521064435.7,286046999.6,N
1521064455.6,286046996.9,N
1521064475.4,286046999.4,N
1521064495.2,286046999.1,N
1521064515.1,286046996.6,N
1521064516.0,286046996.6,N
1521064535.8,286046998.9,N
1521064555.7,286046998.7,N
1521064575.5,286046998.4,N
1521064595.3,286046998.1,N
1521064615.2,286046998.7,N
1521064635.0,286047002.3,N
1521064635.9,286047002.3,N
1521064655.8,286047000.7,N
1521064675.6,286046998.6,N
1521064695.4,286046998.3,N
1521064715.3,286046998.5,N
1521064735.1,286046999.6,N
1521064755.9,286046996.6,N
1521064775.7,286046998.1,N
1521064795.5,286047000.7,N
